This demonstration page uses our WeatherBlox Daily Observations layout. Learn more.

Left ArrowRight Arrow

38.20091, -84.87328

Hourly Observations for January 28, 2020

Temp ( °F °C ) Dew Point ( °F °C ) Humidity (%) Winds ( mph kmh ) Pressure ( in mb ) Visibility ( mi km ) Precip ( " mm )
12:53 am 00:53 Cloudy 34 1.1 27 -2.8 76 76 WNW 5 7 30.04 1017 10 16 0.00 0.00
1:53 am 01:53 Cloudy 34 1.1 27 -2.8 76 76 W 3 6 30.05 1018 10 16 0.00 0.00
2:53 am 02:53 Cloudy 34 1.1 27 -2.8 76 76 W 6 9 30.06 1018 10 16 0.00 0.00
3:53 am 03:53 Cloudy 34 1.1 28 -2.2 79 79 Calm 30.06 1018 10 16 0.00 0.00
4:53 am 04:53 Cloudy 34 1.1 28 -2.2 79 79 NW 3 6 30.05 1018 10 16 0.00 0.00
5:53 am 05:53 Cloudy 34 1.1 28 -2.2 79 79 Calm 30.06 1018 10 16 0.00 0.00
6:53 am 06:53 Cloudy 34 1.1 28 -2.2 79 79 Calm 30.08 1019 10 16 0.00 0.00
7:53 am 07:53 Cloudy 34 1.1 28 -2.2 79 79 Calm 30.09 1019 10 16 0.00 0.00
8:53 am 08:53 Cloudy 34 1.1 29 -1.7 82 82 Calm 30.11 1020 10 16 0.00 0.00
9:53 am 09:53 Cloudy 35 1.7 29 -1.7 78 78 NW 3 6 30.12 1020 10 16 0.00 0.00
10:53 am 10:53 Cloudy 36 2.2 28 -2.2 73 73 NNW 3 6 30.12 1020 10 16 0.00 0.00
11:53 am 11:53 Cloudy 36 2.2 28 -2.2 73 73 NW 3 6 30.11 1020 10 16 0.00 0.00
12:53 pm 12:53 Cloudy 37 2.8 28 -2.2 70 70 Calm 30.09 1019 10 16 0.00 0.00
1:53 pm 13:53 Cloudy 37 2.8 28 -2.2 70 70 WSW 3 6 30.08 1019 10 16 0.00 0.00
2:53 pm 14:53 Cloudy 38 3.3 28 -2.2 68 68 NW 5 7 30.06 1018 10 16 0.00 0.00
3:53 pm 15:53 Cloudy 38 3.3 28 -2.2 68 68 Calm 30.07 1018 10 16 0.00 0.00
4:53 pm 16:53 Cloudy 38 3.3 28 -2.2 68 68 WSW 3 6 30.08 1019 10 16 0.00 0.00
5:53 pm 17:53 Cloudy 38 3.3 28 -2.2 68 68 Calm 30.08 1019 10 16 0.00 0.00
6:53 pm 18:53 Cloudy 37 2.8 28 -2.2 70 70 Calm 30.09 1019 10 16 0.00 0.00
7:53 pm 19:53 Cloudy 37 2.8 28 -2.2 70 70 Calm 30.10 1019 10 16 0.00 0.00
8:53 pm 20:53 Cloudy 37 2.8 28 -2.2 70 70 Calm 30.09 1019 10 16 0.00 0.00
9:53 pm 21:53 Cloudy 37 2.8 29 -1.7 73 73 Calm 30.09 1019 10 16 0.00 0.00
10:53 pm 22:53 Cloudy 37 2.8 29 -1.7 73 73 NNE 3 6 30.09 1019 10 16 0.00 0.00
11:53 pm 23:53 Cloudy 36 2.2 29 -1.7 76 76 NNE 3 6 30.09 1019 10 16 0.00 0.00

Powered by AerisWeather